Time,TemperatureF,DewpointF,PressureIn,WindDirection,WindDirectionDegrees,WindSpeedMPH,WindSpeedGustMPH,Humidity,HourlyPrecipIn,Conditions,Clouds,dailyrainin,SolarRadiationWatts/m^2,SoftwareType,DateUTC
2013-06-29 00:43:00,65.0,35.0,-100.00,WSW,239,3.0,6.0,33,-99.99,,,0.00,0.000000,,2013-06-29 06:43:00,
2013-06-29 00:53:00,65.0,35.0,-100.00,WSW,239,3.0,6.0,33,-99.99,,,0.00,0.000000,,2013-06-29 06:53:00,
2013-06-29 01:02:00,65.0,35.0,-100.00,WSW,239,3.0,6.0,33,-99.99,,,0.00,0.000000,,2013-06-29 07:02:00,
2013-06-29 01:12:00,65.0,35.0,-100.00,WSW,239,3.0,6.0,33,-99.99,,,0.00,0.000000,,2013-06-29 07:12:00,
2013-06-29 01:43:00,66.0,34.0,-100.00,North,358,3.0,6.0,31,0.00,,,0.00,0.000000,,2013-06-29 07:43:00,
2013-06-29 01:53:00,66.0,34.0,-100.00,North,358,3.0,6.0,31,0.00,,,0.00,0.000000,,2013-06-29 07:53:00,
2013-06-29 02:01:00,66.0,34.0,-100.00,North,358,3.0,6.0,31,0.00,,,0.00,0.000000,,2013-06-29 08:01:00,
2013-06-29 02:12:00,66.0,34.0,-100.00,North,358,3.0,6.0,31,0.00,,,0.00,0.000000,,2013-06-29 08:12:00,
2013-06-29 02:43:00,66.0,34.0,-100.00,North,354,4.0,6.0,31,0.00,,,0.00,0.000000,,2013-06-29 08:43:00,
2013-06-29 02:52:00,66.0,34.0,-100.00,North,354,4.0,6.0,31,0.00,,,0.00,0.000000,,2013-06-29 08:52:00,
2013-06-29 03:02:00,66.0,34.0,-100.00,North,354,4.0,6.0,31,0.00,,,0.00,0.000000,,2013-06-29 09:02:00,
2013-06-29 03:42:00,64.0,34.0,-100.00,NNE,15,3.0,6.0,33,-99.99,,,0.00,0.000000,,2013-06-29 09:42:00,
2013-06-29 03:53:00,64.0,34.0,-100.00,NNE,15,3.0,6.0,33,-99.99,,,0.00,0.000000,,2013-06-29 09:53:00,
2013-06-29 04:01:00,64.0,34.0,-100.00,NNE,15,3.0,6.0,33,-99.99,,,0.00,0.000000,,2013-06-29 10:01:00,
2013-06-29 04:11:00,64.0,34.0,-100.00,NNE,15,3.0,6.0,33,-99.99,,,0.00,0.000000,,2013-06-29 10:11:00,
2013-06-29 05:43:00,60.0,36.0,-100.00,South,182,2.0,4.0,40,-99.99,,,0.00,0.000000,,2013-06-29 11:43:00,
2013-06-29 05:53:00,60.0,36.0,-100.00,South,182,2.0,4.0,40,-99.99,,,0.00,0.000000,,2013-06-29 11:53:00,
2013-06-29 06:43:00,59.0,36.0,-100.00,North,3,3.0,4.0,42,-99.99,,,0.00,5.000000,,2013-06-29 12:43:00,
2013-06-29 06:53:00,59.0,36.0,-100.00,North,3,3.0,4.0,42,-99.99,,,0.00,5.000000,,2013-06-29 12:53:00,
2013-06-29 07:02:00,59.0,36.0,-100.00,North,3,3.0,4.0,42,-99.99,,,0.00,5.000000,,2013-06-29 13:02:00,
2013-06-29 07:11:00,59.0,36.0,-100.00,North,3,3.0,4.0,42,-99.99,,,0.00,5.000000,,2013-06-29 13:11:00,
2013-06-29 07:43:00,61.0,36.0,-100.00,North,352,3.0,6.0,40,0.00,,,0.00,87.000000,,2013-06-29 13:43:00,
2013-06-29 07:53:00,61.0,36.0,-100.00,North,352,3.0,6.0,40,0.00,,,0.00,87.000000,,2013-06-29 13:53:00,
2013-06-29 08:02:00,61.0,36.0,-100.00,North,352,3.0,6.0,40,0.00,,,0.00,87.000000,,2013-06-29 14:02:00,
2013-06-29 08:12:00,61.0,36.0,-100.00,North,352,3.0,6.0,40,0.00,,,0.00,87.000000,,2013-06-29 14:12:00,
2013-06-29 09:11:00,69.0,39.0,-100.00,SSE,152,3.0,6.0,33,0.00,,,0.00,321.000000,,2013-06-29 15:11:00,
2013-06-29 10:43:00,75.0,41.0,-100.00,WNW,282,3.0,8.0,29,0.00,,,0.00,548.000000,,2013-06-29 16:43:00,
2013-06-29 10:53:00,75.0,41.0,-100.00,WNW,282,3.0,8.0,29,0.00,,,0.00,548.000000,,2013-06-29 16:53:00,
2013-06-29 11:01:00,75.0,41.0,-100.00,WNW,282,3.0,8.0,29,0.00,,,0.00,548.000000,,2013-06-29 17:01:00,
2013-06-29 11:34:00,82.0,42.0,-100.00,East,84,3.0,8.0,24,0.00,,,0.00,706.000000,,2013-06-29 17:34:00,
2013-06-29 11:42:00,82.0,42.0,-100.00,East,84,3.0,8.0,24,0.00,,,0.00,706.000000,,2013-06-29 17:42:00,
2013-06-29 14:33:00,80.0,40.0,-100.00,NNW,344,6.0,12.0,24,0.00,,,0.00,659.000000,,2013-06-29 20:33:00,
2013-06-29 17:34:00,78.0,38.0,-100.00,ENE,78,12.0,27.0,24,-99.99,,,0.00,404.000000,,2013-06-29 23:34:00,
2013-06-29 17:43:00,78.0,38.0,-100.00,ENE,78,12.0,27.0,24,-99.99,,,0.00,404.000000,,2013-06-29 23:43:00,
2013-06-29 17:53:00,78.0,38.0,-100.00,ENE,78,12.0,27.0,24,-99.99,,,0.00,404.000000,,2013-06-29 23:53:00,
2013-06-29 18:02:00,78.0,38.0,-100.00,ENE,78,12.0,27.0,24,-99.99,,,0.00,404.000000,,2013-06-30 00:02:00,
2013-06-29 18:11:00,78.0,38.0,-100.00,ENE,78,12.0,27.0,24,-99.99,,,0.00,404.000000,,2013-06-30 00:11:00,
2013-06-29 19:33:00,75.0,38.0,-100.00,South,170,2.0,12.0,26,-99.99,,,0.00,121.000000,,2013-06-30 01:33:00,
2013-06-29 19:44:00,75.0,38.0,-100.00,South,170,2.0,12.0,26,-99.99,,,0.00,121.000000,,2013-06-30 01:44:00,
2013-06-29 19:53:00,75.0,38.0,-100.00,South,170,2.0,12.0,26,-99.99,,,0.00,121.000000,,2013-06-30 01:53:00,
2013-06-29 20:02:00,75.0,38.0,-100.00,South,170,2.0,12.0,26,-99.99,,,0.00,121.000000,,2013-06-30 02:02:00,
2013-06-29 20:11:00,75.0,38.0,-100.00,South,170,2.0,12.0,26,-99.99,,,0.00,121.000000,,2013-06-30 02:11:00,
2013-06-29 20:34:00,72.0,43.0,-100.00,SSW,202,4.0,7.0,35,0.00,,,0.00,60.000000,,2013-06-30 02:34:00,
2013-06-29 20:43:00,72.0,43.0,-100.00,SSW,202,4.0,7.0,35,0.00,,,0.00,60.000000,,2013-06-30 02:43:00,
2013-06-29 20:53:00,72.0,43.0,-100.00,SSW,202,4.0,7.0,35,0.00,,,0.00,60.000000,,2013-06-30 02:53:00,
2013-06-29 21:01:00,72.0,43.0,-100.00,SSW,202,4.0,7.0,35,0.00,,,0.00,60.000000,,2013-06-30 03:01:00,
2013-06-29 21:12:00,72.0,43.0,-100.00,SSW,202,4.0,7.0,35,0.00,,,0.00,60.000000,,2013-06-30 03:12:00,
2013-06-29 21:43:00,68.0,40.0,-100.00,SW,221,4.0,7.0,36,0.00,,,0.00,4.000000,,2013-06-30 03:43:00,
2013-06-29 21:53:00,68.0,40.0,-100.00,SW,221,4.0,7.0,36,0.00,,,0.00,4.000000,,2013-06-30 03:53:00,
2013-06-29 22:01:00,68.0,40.0,-100.00,SW,221,4.0,7.0,36,0.00,,,0.00,4.000000,,2013-06-30 04:01:00,
2013-06-29 22:12:00,68.0,40.0,-100.00,SW,221,4.0,7.0,36,0.00,,,0.00,4.000000,,2013-06-30 04:12:00,
2013-06-29 22:33:00,67.0,40.0,-100.00,NNW,340,3.0,11.0,37,0.00,,,0.00,0.000000,,2013-06-30 04:33:00,
2013-06-29 22:43:00,67.0,40.0,-100.00,NNW,340,3.0,11.0,37,0.00,,,0.00,0.000000,,2013-06-30 04:43:00,
2013-06-29 22:53:00,67.0,40.0,-100.00,NNW,340,3.0,11.0,37,0.00,,,0.00,0.000000,,2013-06-30 04:53:00,
2013-06-29 23:02:00,67.0,40.0,-100.00,NNW,340,3.0,11.0,37,0.00,,,0.00,0.000000,,2013-06-30 05:02:00,
2013-06-29 23:12:00,67.0,40.0,-100.00,NNW,340,3.0,11.0,37,0.00,,,0.00,0.000000,,2013-06-30 05:12:00,
2013-06-29 23:34:00,66.0,40.0,-100.00,NNE,30,0.0,6.0,38,0.00,,,0.00,0.000000,,2013-06-30 05:34:00,
2013-06-29 23:43:00,66.0,40.0,-100.00,NNE,30,0.0,6.0,38,0.00,,,0.00,0.000000,,2013-06-30 05:43:00,
2013-06-29 23:53:00,66.0,40.0,-100.00,NNE,30,0.0,6.0,38,0.00,,,0.00,0.000000,,2013-06-30 05:53:00,